Вернуться в каталог

METEOR 2-17 DEB

АктивенPO
NORAD 45521·DEBRIS·🇷🇺 Russia

Запущен Jan 30, 1988 с Plesetsk Cosmodrome

Loading…

Ближайшие Пролёты (ближайшие 24 часа)

TLE

СвежийSource: Space-Track

Эпоха: Sep 14, 2026, 05:20 UTC

1 45521U 88005BB  26257.22266051  .00001262  00000-0  88558-3 0  9992
2 45521  82.5105 210.6659 0017910  68.5034 291.8041 13.97496001650256

Отслеживайте METEOR 2-17 DEB в реальном времени с AllMySat

Download on the App Store